Погода в Аягузе

Хотите узнать прогноз погоды в Аягузе? Тогда Вам сюда: Погода в Аягузе

Поиск расширенной информации на нашем сайте:

Полезная информация:

Новости сайта



02.01.2020
Опубликован Долгосрочный прогноз погоды по городам России и ближнего зарубежья на январь 2020 года.
Карты: Прогноз на январь и февраль 2020 года, Сравнение прогнозируемой аномалии приземной температуры воздуха на январь 2020 года по разным моделям.




Погода в Аягузе - сегодня

Время (UTC), дата Ветер
(°,м/с) 
Видим.   Явления Облачность Т
(°С)
Тd
(°С)
f(%) Тe
(°С)
Pmin
(гПа)
dP
(гПа)
Po
(мм)
O2
(г/м3)
Тmin Tmax R s Состояние
почвы
12 22.10.21 270 (З) 20000 м    8/3 600 м кучево-дожд., средняя 
[Cb cap|Ac lent]
+2.3 -5.7 55 +2  1032.2  1.7  714  286           
15 22.10.21 тихо ()   н/о    10/0 средняя 
[Ac As]
+1.1 -3.3 72 +1  1035.3  2.5  716  288    +4       
18 22.10.21 тихо ()   н/о    10/0 средняя 
[Ac As]
+0.6 -3.2 76 +1  1036.6  1.1  717  288    +4       
21 22.10.21 тихо ()   н/о    ясно 
-1 -3.8 81 -1  1037.6  0.5  717  290           
00 23.10.21 тихо ()   н/о    6/0 средняя 
[Ac lent]
-1.9 -3.7 87 -2  1038.5  0.5  718  291           
03 23.10.21 230 (ЮЗ) 20000 м    9/4 600 м кучево-дожд., средняя 
[Cb cap|Ac lent]
-0.1 -2.7 83 -1  1038.8  0.8  718  290           
06 23.10.21 230 (ЮЗ) 20000 м    10/8 600 м кучево-дожд., средняя 
[Cb cap|Ac As]
+2.1 -3.4 67 -2  1037.6  -0.5  718  287  -1.9         
09 23.10.21 230 (ЮЗ) 20000 м    10/8 600 м кучево-дожд., средняя 
[Cb cap|Ac As]
+4.7 -3.8 54 +3  1035.6  -1.1  717  284           
12 23.10.21 230 (ЮЗ) 20000 м    8/6 600 м кучево-дожд., средняя 
[Cb cap|Ac lent]
+4.1 -3.2 59 +1  1035.8  717  285           
15 23.10.21 230 (ЮЗ) н/о    8/0 средняя 
[Ac lent]
+1.7 -4.6 63 +1  1037.6  718  288    +4.9       
18 23.10.21 230 (ЮЗ) н/о    8/0 средняя 
[Ac lent]
+1.1 -4.3 67 -1  1037.1  -0.6  717  288    +4.9       
21 23.10.21 230 (ЮЗ) н/о    8/0 средняя 
[Ac lent]
+0.4 -4.5 70 1037  -0.3  717  289           
00 24.10.21 180 (Ю) н/о    8/0 средняя 
[Ac lent]
-0.1 -5.1 69 -1  1036.9  -0.2  717  289           
03 24.10.21 тихо ()   20000 м    6/0 средняя 
[Ac trans]
+3.2 -2 69 +3  1036.2  0.3  717  286           
06 24.10.21 тихо ()   20000 м    6/0 средняя 
[Ac trans]
+8.3 -3.5 43 +8  1033.8  -0.9  716  280  -0.1         
09 24.10.21 тихо ()   20000 м    3/0 средняя 
[Ac lent]
+9.9 -3.2 40 +10  1031.3  -1.9  715  278           
12 24.10.21 тихо ()   20000 м    3/0 средняя 
[Ac lent]
+7.2 -0.7 57 +7  1031.2  -0.7  714  280           
15 24.10.21 тихо ()   н/о    ясно 
+2.4 -3.4 65 +2  1031.7  -0.9  714  285    +10.3       
18 24.10.21 тихо ()   н/о    ясно 
+1.9 -3.3 68 +2  1029.9  -1.8  712  285    +10.3       
21 24.10.21 тихо ()   н/о    ясно 
+0.8 -3.6 72 +1  1028.1  -2  711  286           
00 25.10.21 тихо ()   н/о    ясно 
+0.3 -3.9 73 1026  -2.1  709  286           
03 25.10.21 140 (ЮВ) 20000 м    ясно 
+2.7 -1.7 73 +2  1024.5  -0.7  709  283  +0.3         
06 25.10.21 140 (ЮВ) 20000 м    ясно 
+11.4 -1.7 40 +12  1020.6  -1.2  708  274  +0.3         
09 25.10.21 140 (ЮВ) 20000 м    ясно 
+15.1 -1.4 32 +16  1017.5  -2  706  270           
12 25.10.21 090 (В) 20000 м    3/0 средняя 
[Ac lent]
+8.9 -3.6 41 +9  1020  0.7  707  276           
Время (UTC), дата Ветер
(°,м/с) 
Видим.   Явления Облачность Т
(°С)
Тd
(°С)
f(%) Тe
(°С)
Pmin
(гПа)
dP
(гПа)
Po
(мм)
O2
(г/м3)
Тmin Tmax R s Состояние
почвы

Для получения пояснительной информации подведите курсор к названию столбца.

ПОГОДА в Аягузе - архив

Всё, что Вы хотите узнать о погоде в Аягузе - удобно и подробно!

Выберите нужную дату (начиная с 1 января 2019* года) и нажмите кнопку "Найти".
Будут отображены архивные сводки погоды по пункту Аягуз, начиная с указанной даты.


Отображать данные в формате CSV (для использования в таблицах Excel)


Внимание! Наш архив погоды предназначен исключительно для личного некоммерческого использования в познавательных целях. Если Вам необходимы официальные справки о состоянии погоды (для производственных, юридических, коммерческих и т.п. целей), обращайтесь в органы Росгидромета.

*Примечание: данная дата относится к архиву по метеостанциям СССР (Россия, СНГ, Балтия).
Архив по метеостанциям Зарубежной Европы и Азии (кроме Китая) хранится 10 дней, по другим регионам земного шара (Китай, Африка, Америка, Австралия, Океания) - 1 день.

Аягуз - район местоположения метеостанции


Название, широта, долгота, высота метеостанции:
Аягуз 48°ш. 80.4°д. 662 м над ур. моря [Казахстан]

Дополнительная информация

В oтличие oт бoльшинства пoгoдных сайтoв мы публикуем пoдрoбную метеoинфoрмацию в детальнoм прoфессиoнальнoм фoрмате.

Характеристики температуры и влажнoсти вoздуха измеряются на высoте 2 м в тени вдали oт зданий и деревьев.
Скoрoсть ветра измеряется на высoте 10 м (на урoвне рoста челoвека скoрoсть ветра ниже в 1.5-2 раза). Если метеoстанция нахoдится в гoрoде или в лесу, тo скoрoсть ветра занижена на 2-4 м/с пo сравнению с oткрытым местoм. Скoрoсть ветра над акватoриями крупных рек и oзёр, а также на вершинах хoлмoв на 2-5 м/с выше, чем в oбычных услoвиях.
Атмoсфернoе давление в разных тoчках местнoсти мoжет значительнo oтличаться oт давления на метеoстанции, в зависимoсти oт услoвий рельефа (при пoдъёме на 10 м давление пoнижается примернo на 1 мм рт.ст.).